Regional Weather Roundup
Issued by NWS

Home | Current Version | Previous Version | Graphics & Text | Print | Product List | Glossary On
Versions: 1 2 3 4 5 6 7 8 9 10 11 12 13 14 15 16 17 18 19 20 21 22 23 24 25 26 27 28 29 30 31 32 33 34 35 36 37 38 39 40 41 42 43 44 45 46 47 48 49 50
000
ASUS45 KABQ 251701
RWRNM
NEW MEXICO REGIONAL WEATHER ROUNDUP
NATIONAL WEATHER SERVICE ALBUQUERQUE NM
1100 AM MDT TUE JUL 25 2017

NOTE: "FAIR" MEANS FEW OR NO CLOUDS BELOW 12,000 FEET AGL WITH NO
       SIGNIFICANT WEATHER OR OBSTRUCTIONS TO VISION.

      THIS PRODUCT IS RELEASED AS TWO VERSIONS.  ONE VERSION NEAR
      THE TOP OF THE HOUR CONTAINING PRELIMINARY DATA FROM ALBUQUERQUE
      AND OTHER STATIONS.  A FINAL VERSION WITH ADDITIONAL DATA IS
      ISSUED ABOUT 10 MINUTES AFTER THE HOUR.

NMZ501-503-504-510>518-251800-
NORTHWEST PLATEAU/NORTHCENTRAL MOUNTAINS

CITY           SKY/WX    TMP DP  RH WIND       PRES   REMARKS
FARMINGTON     FAIR      77  61  57 W3        30.22S
LOS ALAMOS     FAIR      74  56  52 SE6       30.35F
SANTA FE       FAIR      77  59  53 VRB6      30.29S
TAOS           FAIR      73  54  49 S6        30.34F
ANGEL FIRE     PTSUNNY   67  54  63 W5        30.43F

$$
NMZ402-403-502-505>509-251800-
WESTCENTRAL MOUNTAINS/SOUTHWEST MOUNTAINS

CITY           SKY/WX    TMP DP  RH WIND       PRES   REMARKS
GALLUP         FAIR      70  59  68 SW13      30.32R
GRANTS         PTSUNNY   75  55  49 NE6       30.33S
SILVER CITY    FAIR      77  58  53 CALM      30.27S

$$
NMZ407-409-411-412-251800-
SOUTHERN DESERTS

CITY           SKY/WX    TMP DP  RH WIND       PRES   REMARKS
DEMING         FAIR      81  64  56 CALM      30.20R
LAS CRUCES     FAIR      81  62  53 W5        30.22S
HOLLOMAN AFB   FAIR      88  61  40 SE7       30.19F
ALAMOGORDO     FAIR      82  59  44 S10       30.20S
T OR C         FAIR      83  58  42 VRB6      30.20F

$$
NMZ519>523-251800-
CENTRAL VALLEYS/CENTRAL HIGHLANDS

CITY           SKY/WX    TMP DP  RH WIND       PRES   REMARKS
ALBUQUERQUE    PTSUNNY   80  60  50 VRB6      30.24S
DOUBLE EAGLE   PTSUNNY   81  57  44 VRB7      30.27S
MORIARTY ARPT  FAIR      81  57  43 W3        30.30F
CLINES CORNERS FAIR      77  54  44 W9        30.35S
BELEN          NOT AVBL
SOCORRO        FAIR      80  62  54 SE7       30.22F

$$
NMZ524>526-539-540-251800-
SOUTHCENTRAL MOUNTAINS

CITY           SKY/WX    TMP DP  RH WIND       PRES   REMARKS
RUIDOSO        FAIR      75  55  50 SW12      30.37R

$$
NMZ527>531-251800-
NORTHEAST HIGHLANDS/NORTHEAST PLAINS

CITY           SKY/WX    TMP DP  RH WIND       PRES   REMARKS
LAS VEGAS      FAIR      79  55  43 SW14      30.31S
RATON          FAIR      82  54  37 S10       30.23F
CLAYTON        FAIR      88  59  37 S16G25    30.15F

$$
NMZ532>537-251800-
EASTCENTRAL PLAINS

CITY           SKY/WX    TMP DP  RH WIND       PRES   REMARKS
SANTA ROSA     FAIR      88  57  34 S9        30.16F
TUCUMCARI      FAIR      93  61  34 SW13      30.10F
CANNON AFB     FAIR      89  60  38 S10       30.18S
CLOVIS AIRPORT FAIR      88  62  41 SW13G18   30.17F

$$
NMZ028-029-538-251800-
SOUTHEAST PLAINS

CITY           SKY/WX    TMP DP  RH WIND       PRES   REMARKS
ROSWELL        FAIR      91  59  33 S16       30.11F
ARTESIA        FAIR      90  63  40 S14       30.12F
CARLSBAD       FAIR      90  66  45 SE10G16   30.10S
HOBBS          SUNNY     88  59  37 S7        30.16S


$$




USA.gov is the U.S. government's official web portal to all federal, state and local government web resources and services.